TimeMST,TemperatureF,Dew PointF,Humidity,Sea Level PressureIn,VisibilityMPH,Wind Direction,Wind SpeedMPH,Gust SpeedMPH,PrecipitationIn,Events,Conditions,WindDirDegrees,DateUTC
12:53 AM,5.0,-0.0,80,30.60,10.0,SSW,3.5,-,N/A,,Clear,210,2013-01-17 07:53:00
1:53 AM,3.9,-0.0,84,30.58,10.0,South,6.9,-,N/A,,Clear,170,2013-01-17 08:53:00
2:53 AM,3.9,-0.0,84,30.57,10.0,South,6.9,-,N/A,,Clear,180,2013-01-17 09:53:00
3:53 AM,3.0,-2.0,80,30.59,10.0,South,5.8,-,N/A,,Clear,170,2013-01-17 10:53:00
4:53 AM,3.0,-0.9,84,30.61,10.0,South,9.2,-,N/A,,Clear,170,2013-01-17 11:53:00
5:53 AM,3.0,-2.0,80,30.66,10.0,SSE,6.9,-,N/A,,Clear,150,2013-01-17 12:53:00
6:53 AM,3.9,-0.9,80,30.66,10.0,SSE,5.8,-,N/A,,Clear,150,2013-01-17 13:53:00
7:53 AM,3.0,-2.0,80,30.68,10.0,SSE,5.8,-,N/A,,Clear,150,2013-01-17 14:53:00
8:53 AM,9.0,3.9,80,30.70,10.0,Calm,Calm,-,N/A,,Clear,0,2013-01-17 15:53:00
9:53 AM,17.1,10.0,74,30.64,10.0,SSE,3.5,-,N/A,,Clear,160,2013-01-17 16:53:00
10:53 AM,21.9,10.9,63,30.58,10.0,NNW,3.5,-,N/A,,Clear,330,2013-01-17 17:53:00
11:53 AM,24.1,12.9,62,30.55,10.0,Variable,5.8,-,N/A,,Clear,0,2013-01-17 18:53:00
12:53 PM,28.9,14.0,54,30.51,10.0,North,5.8,-,N/A,,Clear,350,2013-01-17 19:53:00
1:37 PM,30.2,12.2,47,30.38,10.0,NW,4.6,-,N/A,,Clear,320,2013-01-17 20:37:00
1:53 PM,30.9,14.0,50,30.48,10.0,NNW,3.5,-,N/A,,Clear,330,2013-01-17 20:53:00
2:53 PM,32.0,15.1,50,30.47,10.0,NW,5.8,-,N/A,,Clear,320,2013-01-17 21:53:00
3:53 PM,30.0,12.9,49,30.48,10.0,NW,4.6,-,N/A,,Clear,310,2013-01-17 22:53:00
4:53 PM,25.0,12.0,58,30.54,10.0,SSW,3.5,-,N/A,,Clear,200,2013-01-17 23:53:00
5:53 PM,17.1,8.1,68,30.60,10.0,SSW,5.8,-,N/A,,Clear,200,2013-01-18 00:53:00
6:53 PM,19.0,9.0,65,30.58,10.0,SSW,6.9,-,N/A,,Clear,210,2013-01-18 01:53:00
7:53 PM,14.0,7.0,74,30.62,10.0,South,5.8,-,N/A,,Clear,190,2013-01-18 02:53:00
8:53 PM,12.0,5.0,73,30.59,10.0,Calm,Calm,-,N/A,,Clear,0,2013-01-18 03:53:00
9:53 PM,10.9,3.9,73,30.55,10.0,SSW,6.9,-,N/A,,Clear,200,2013-01-18 04:53:00
10:53 PM,8.1,1.9,76,30.53,10.0,SSW,4.6,-,N/A,,Clear,210,2013-01-18 05:53:00
11:53 PM,8.1,1.9,76,30.52,10.0,South,4.6,-,N/A,,Clear,190,2013-01-18 06:53:00